Weather in Amahai

Indonesia     3°19′26″S   128°56′27″E
temp.,
°C
wind,
m/s
gust,
m/s
humid.,
%
clouds,
%
prec.,
mm/h
press.,
hPa
HPBL,
m
20 april, tue
tue2000:00+23ene0093100 0.8 1011102
03:00+23n1193100 0.8 1009127
06:00+23n1193100 0.0 101088
09:00+25n118398 0.0 1012320
12:00+27s2173100 0.0 1010642
15:00+27ssw1179100 1.2 1008217
18:00+25sse1187100 2.4 1009117
21:00+25nne1188100 2.4 1012141
21 april, wed
wed2100:00+24nne2291100 0.1 101269
03:00+24n2290100 0.2 101067
06:00+24n2289100 0.1 101170
09:00+26n1180100 0.1 1012212
12:00+29ssw2266100 0.0 1010881
15:00+29ssw226269 0.0 1008780
18:00+26ssw128396 0.6 1010155
21:00+25ne118962 1.3 1012146
22 april, thu
thu2200:00+24nne1192100 0.4 101141
03:00+24nne119392 0.6 101059
06:00+24nne1193100 0.3 101063
09:00+26nnw0083100 0.3 1012326
12:00+28ssw2270100 0.0 1010714
15:00+28s2272100 0.1 1008666
18:00+26ssw118198 0.0 1009179
21:00+25e018726 0.4 1011147
23 april, fri
fri2300:00+24nne119168 0.2 101180
03:00+24nne219226 0.2 100965
06:00+24nne11925 0.1 101057
09:00+28s01725 0.1 1011539
12:00+29ssw336539 0.0 10091105
15:00+29s436626 0.1 1007925
18:00+27s237821 0.1 1008297
21:00+25ese128682 0.4 1011192
24 april, sat
sat2400:00+24ne118967 0.2 101092
03:00+24ene118956 0.4 100969
06:00+23ne218966 0.2 101065
09:00+28sse127317 0.3 1012634
12:00+29ssw3366100 0.1 10101114
15:00+29ssw43667 0.2 10081015
18:00+26s24815 0.6 1009253
21:00+24ene118511 0.8 1011167